Tracking 25709 objects as of 23-May-2022
HD Live streaming from Space Station
objects crossing your sky now

ONEWEB-0385

Track ONEWEB-0385 now!
10-day predictions
ONEWEB-0385 is classified as:


NORAD ID: 49311
Int'l Code: 2021-090AJ
Perigee: 598.7 km
Apogee: 602.0 km
Inclination: 87.2 °
Period: 96.5 minutes
Semi major axis: 6971 km
RCS: Unknown
Launch date: October 14, 2021
Source: United Kingdom (UK)
Launch site: VOSTOCHNY COSMODROME (VOSTO)
aabbcc
Your satellite tracking list
Your tracking list is empty




NASA's NSSDC Master Catalog

Two Line Element Set (TLE):
1 49311U 21090AJ  22143.91668981 -.00023898  00000-0 -24017-2 0  9998
2 49311  87.2023 214.7937 0002379 191.9339 199.9303 14.91513232 34430
Source of the keplerian elements: AFSPC